Tracking 27126 objects as of 30-Mar-2023
HD Live streaming from Space Station
objects crossing your sky now

COSMOS 2222

Track COSMOS 2222 now!
COSMOS 2222 is classified as:


NORAD ID: 22238
Int'l Code: 1992-081A
Perigee: 113.3 km
Apogee: 38,194.4 km
Inclination: 60.1 °
Period: 676.4 minutes
Semi major axis: 25524 km
RCS: 13.6381 m2 (large)
Launch date: November 25, 1992
Source: Commonwealth of Independent States (former USSR) (CIS)
Launch site: PLESETSK MISSILE AND SPACE COMPLEX (PKMTR)
Your satellite tracking list
Your tracking list is empty




NASA's NSSDC Master Catalog

Two Line Element Set (TLE):
1 22238U 92081A   23088.04177746  .00303489 -10369-4  26061-3 0  9993
2 22238  60.0678 247.4723 7459597 216.4980  56.1722  2.12891413222315
Source of the keplerian elements: AFSPC